Year,Month,Day,Hour,Minute,Value (Times are PST for temperature in C)
2013,07,25,10,04,18.90
2013,07,25,10,05,18.90
2013,07,25,10,06,19.00
2013,07,25,10,07,19.10
2013,07,25,10,08,19.10
2013,07,25,10,09,19.10
2013,07,25,10,10,19.20
2013,07,25,10,11,19.20
2013,07,25,10,12,19.30
2013,07,25,10,13,19.30
2013,07,25,10,14,19.40
2013,07,25,10,15,19.40
2013,07,25,10,16,19.40
2013,07,25,10,17,19.50
2013,07,25,10,18,19.50
2013,07,25,10,19,19.50
2013,07,25,10,20,19.50
2013,07,25,10,21,19.60
2013,07,25,10,22,19.60
2013,07,25,10,23,19.70
2013,07,25,10,24,19.80
2013,07,25,10,25,19.80
2013,07,25,10,26,19.90
2013,07,25,10,27,19.90
2013,07,25,10,28,19.90
2013,07,25,10,29,20.00
2013,07,25,10,30,20.10
2013,07,25,10,31,20.20
2013,07,25,10,32,20.20
2013,07,25,10,33,20.20
2013,07,25,10,34,20.30
2013,07,25,10,35,20.30
2013,07,25,10,36,20.30
2013,07,25,10,37,20.20
2013,07,25,10,38,20.20
2013,07,25,10,39,20.20
2013,07,25,10,40,20.20
2013,07,25,10,41,20.20
2013,07,25,10,42,20.10
2013,07,25,10,43,20.10
2013,07,25,10,44,20.10
2013,07,25,10,45,20.20
2013,07,25,10,46,20.20
2013,07,25,10,47,20.30
2013,07,25,10,48,20.40
2013,07,25,10,49,20.50
2013,07,25,10,50,20.70
2013,07,25,10,51,20.80
2013,07,25,10,52,21.00
2013,07,25,10,53,21.10
2013,07,25,10,54,21.30
2013,07,25,10,55,21.40
2013,07,25,10,56,21.60
2013,07,25,10,57,21.70
2013,07,25,10,58,21.90
2013,07,25,10,59,22.00
2013,07,25,11,00,22.10
2013,07,25,11,01,22.30
2013,07,25,11,02,22.30
2013,07,25,11,03,22.40
2013,07,25,11,04,22.40
2013,07,25,11,05,22.40
2013,07,25,11,06,22.40
2013,07,25,11,07,22.40
2013,07,25,11,08,22.40
2013,07,25,11,09,22.40
2013,07,25,11,10,22.30
2013,07,25,11,11,22.30
2013,07,25,11,12,22.30
2013,07,25,11,13,22.30
2013,07,25,11,14,22.20
2013,07,25,11,15,22.10
2013,07,25,11,16,22.00
2013,07,25,11,17,22.00
2013,07,25,11,18,22.10
2013,07,25,11,19,22.10
2013,07,25,11,20,22.10
2013,07,25,11,21,22.10
2013,07,25,11,22,22.10
2013,07,25,11,23,22.20
2013,07,25,11,24,22.20
2013,07,25,11,25,22.30
2013,07,25,11,26,22.40
2013,07,25,11,27,22.50
2013,07,25,11,28,22.70
2013,07,25,11,29,22.80
2013,07,25,11,30,22.90
2013,07,25,11,31,23.00
2013,07,25,11,32,23.10
2013,07,25,11,33,23.10
2013,07,25,11,34,23.10
2013,07,25,11,35,23.20
2013,07,25,11,36,23.30
2013,07,25,11,37,23.30
2013,07,25,11,38,23.30
2013,07,25,11,39,23.40
2013,07,25,11,40,23.50
2013,07,25,11,41,23.60
2013,07,25,11,42,23.70
2013,07,25,11,43,23.70
2013,07,25,11,44,23.70
2013,07,25,11,45,23.70
2013,07,25,11,46,23.70
2013,07,25,11,47,23.70
2013,07,25,11,48,23.60
2013,07,25,11,49,23.40
2013,07,25,11,50,23.40
2013,07,25,11,51,23.30
2013,07,25,11,52,23.30
2013,07,25,11,53,23.30
2013,07,25,11,54,23.30
2013,07,25,11,55,23.30
2013,07,25,11,56,23.10
2013,07,25,11,57,23.00
2013,07,25,11,58,22.90
2013,07,25,11,59,22.90
2013,07,25,12,00,22.90
2013,07,25,12,01,22.90
2013,07,25,12,02,22.90
2013,07,25,12,03,22.90
2013,07,25,12,04,22.80
2013,07,25,12,05,22.80
2013,07,25,12,06,22.80
2013,07,25,12,07,22.80
2013,07,25,12,08,22.70
2013,07,25,12,09,22.60
2013,07,25,12,10,22.50
2013,07,25,12,11,22.40
2013,07,25,12,12,22.30
2013,07,25,12,13,22.10
2013,07,25,12,14,21.50
2013,07,25,12,15,21.00
2013,07,25,12,16,20.70
2013,07,25,12,17,20.40
2013,07,25,12,18,20.20
2013,07,25,12,19,20.20
2013,07,25,12,20,20.30
2013,07,25,12,21,20.40
2013,07,25,12,22,20.60
2013,07,25,12,23,20.80
2013,07,25,12,24,21.00
2013,07,25,12,25,21.10
2013,07,25,12,26,21.30
2013,07,25,12,27,21.50
2013,07,25,12,28,21.60
2013,07,25,12,29,21.80
2013,07,25,12,30,21.90
2013,07,25,12,31,22.00
2013,07,25,12,32,22.20
2013,07,25,12,33,22.40
2013,07,25,12,34,22.50
2013,07,25,12,35,22.50
2013,07,25,12,36,22.50
2013,07,25,12,37,22.50
2013,07,25,12,38,22.40
2013,07,25,12,39,22.10
2013,07,25,12,40,21.90
2013,07,25,12,41,21.80
2013,07,25,12,42,21.80
2013,07,25,12,43,21.70
2013,07,25,12,44,21.50
2013,07,25,12,45,21.40
2013,07,25,12,46,21.30
2013,07,25,12,47,21.40
2013,07,25,12,48,21.60
2013,07,25,12,49,21.60
2013,07,25,12,50,21.60
2013,07,25,12,51,21.50
2013,07,25,12,52,21.40
2013,07,25,12,53,21.30
2013,07,25,12,54,21.30
2013,07,25,12,55,21.40
2013,07,25,12,56,21.50
2013,07,25,12,57,21.60
2013,07,25,12,58,21.60
2013,07,25,12,59,21.80
2013,07,25,13,00,21.90
2013,07,25,13,01,22.00
2013,07,25,13,02,22.00
2013,07,25,13,03,22.00
2013,07,25,13,04,21.90
2013,07,25,13,05,21.90
2013,07,25,13,06,21.90
2013,07,25,13,07,21.90
2013,07,25,13,08,21.80
2013,07,25,13,09,21.80
2013,07,25,13,10,21.90
2013,07,25,13,11,21.80
2013,07,25,13,12,21.80
2013,07,25,13,13,21.80
2013,07,25,13,14,21.80
2013,07,25,13,15,21.80
2013,07,25,13,16,21.80
2013,07,25,13,17,21.80
2013,07,25,13,18,21.90
2013,07,25,13,19,21.90
2013,07,25,13,20,21.90
2013,07,25,13,21,21.90
2013,07,25,13,22,21.90
2013,07,25,13,23,22.00
2013,07,25,13,24,22.20
2013,07,25,13,25,22.20
2013,07,25,13,26,22.20
2013,07,25,13,27,22.30
2013,07,25,13,28,22.30
2013,07,25,13,29,22.30
2013,07,25,13,30,22.30
2013,07,25,13,31,22.30
2013,07,25,13,32,22.30
2013,07,25,13,33,22.20
2013,07,25,13,34,22.20
2013,07,25,13,35,22.30
2013,07,25,13,36,22.30
2013,07,25,13,37,22.30
2013,07,25,13,38,22.30
2013,07,25,13,39,22.30
2013,07,25,13,40,22.40
2013,07,25,13,41,22.50
2013,07,25,13,42,22.40
2013,07,25,13,43,22.50
2013,07,25,13,44,22.60
2013,07,25,13,45,22.60
2013,07,25,13,46,22.60
2013,07,25,13,47,22.70
2013,07,25,13,48,22.70
2013,07,25,13,49,22.70
2013,07,25,13,50,22.80
2013,07,25,13,51,22.80
2013,07,25,13,52,22.80
2013,07,25,13,53,22.80
2013,07,25,13,54,22.80
2013,07,25,13,55,22.80
2013,07,25,13,56,22.80
2013,07,25,13,57,22.70
2013,07,25,13,58,22.70
2013,07,25,13,59,22.70
2013,07,25,14,00,22.70
2013,07,25,14,01,22.70
2013,07,25,14,02,22.70
2013,07,25,14,03,22.70
2013,07,25,14,04,22.70
2013,07,25,14,05,22.60
2013,07,25,14,06,22.60
2013,07,25,14,07,22.60
2013,07,25,14,08,22.60
2013,07,25,14,09,22.70
2013,07,25,14,10,22.70
2013,07,25,14,11,22.70
2013,07,25,14,12,22.70
2013,07,25,14,13,22.60
2013,07,25,14,14,22.60
2013,07,25,14,15,22.60
2013,07,25,14,16,22.50
2013,07,25,14,17,22.40
2013,07,25,14,18,22.30
2013,07,25,14,19,22.40
2013,07,25,14,20,22.40
2013,07,25,14,21,22.40
2013,07,25,14,22,22.30
2013,07,25,14,23,22.30
2013,07,25,14,24,22.20
2013,07,25,14,25,22.20
2013,07,25,14,26,22.20
2013,07,25,14,27,22.20
2013,07,25,14,28,22.20
2013,07,25,14,29,22.30
2013,07,25,14,30,22.30
2013,07,25,14,31,22.40
2013,07,25,14,32,22.40
2013,07,25,14,33,22.40
2013,07,25,14,34,22.30
2013,07,25,14,35,22.20
2013,07,25,14,36,22.20
2013,07,25,14,37,22.10
2013,07,25,14,38,22.00
2013,07,25,14,39,21.90
2013,07,25,14,40,21.80
2013,07,25,14,41,21.80
2013,07,25,14,42,21.80
2013,07,25,14,43,21.80
2013,07,25,14,44,21.90
2013,07,25,14,45,22.00
2013,07,25,14,46,22.30
2013,07,25,14,47,22.50
2013,07,25,14,48,22.60
2013,07,25,14,49,22.60
2013,07,25,14,50,22.70
2013,07,25,14,51,22.80
2013,07,25,14,52,22.90
2013,07,25,14,53,22.90
2013,07,25,14,54,22.90
2013,07,25,14,55,22.90
2013,07,25,14,56,23.00
2013,07,25,14,57,23.20
2013,07,25,14,58,23.30
2013,07,25,14,59,23.30
2013,07,25,15,00,23.40
2013,07,25,15,01,23.40
2013,07,25,15,02,23.60
2013,07,25,15,03,23.70
2013,07,25,15,04,23.70
2013,07,25,15,05,23.70
2013,07,25,15,06,23.60
2013,07,25,15,07,23.60
2013,07,25,15,08,23.70
2013,07,25,15,09,23.80
2013,07,25,15,10,23.80
2013,07,25,15,11,23.80
2013,07,25,15,12,23.70
2013,07,25,15,13,23.70
2013,07,25,15,14,23.70
2013,07,25,15,15,23.70
2013,07,25,15,16,23.70
2013,07,25,15,17,23.70
2013,07,25,15,18,23.70
2013,07,25,15,19,23.70
2013,07,25,15,20,23.70
2013,07,25,15,21,23.70
2013,07,25,15,22,23.70
2013,07,25,15,23,23.70
2013,07,25,15,24,23.70
2013,07,25,15,25,23.60
2013,07,25,15,26,23.50
2013,07,25,15,27,23.40
2013,07,25,15,28,23.40
2013,07,25,15,29,23.30
2013,07,25,15,30,23.30
2013,07,25,15,31,23.30
2013,07,25,15,32,23.20
2013,07,25,15,33,23.00
2013,07,25,15,34,22.90
2013,07,25,15,35,22.90
2013,07,25,15,36,22.70
2013,07,25,15,37,22.70
2013,07,25,15,38,22.60
2013,07,25,15,39,22.60
2013,07,25,15,40,22.60
2013,07,25,15,41,22.60
2013,07,25,15,42,22.60
2013,07,25,15,43,22.60
2013,07,25,15,44,22.50
2013,07,25,15,45,22.50
2013,07,25,15,46,22.40
2013,07,25,15,47,22.40
2013,07,25,15,48,22.40
2013,07,25,15,49,22.40
2013,07,25,15,50,22.40
2013,07,25,15,51,22.50
2013,07,25,15,52,22.60
2013,07,25,15,53,22.70
2013,07,25,15,54,22.70
2013,07,25,15,55,22.80
2013,07,25,15,56,22.90
2013,07,25,15,57,23.00
2013,07,25,15,58,23.10
2013,07,25,15,59,23.10
2013,07,25,16,00,23.10
2013,07,25,16,01,23.10
2013,07,25,16,02,23.10
2013,07,25,16,03,23.00
2013,07,25,16,04,22.90
2013,07,25,16,05,22.90
2013,07,25,16,06,22.90
2013,07,25,16,07,22.90
2013,07,25,16,08,22.90
2013,07,25,16,09,22.90
2013,07,25,16,10,22.90
2013,07,25,16,11,22.90
2013,07,25,16,12,23.00
2013,07,25,16,13,23.10
2013,07,25,16,14,23.20
2013,07,25,16,15,23.20
2013,07,25,16,16,23.20
2013,07,25,16,17,23.20
2013,07,25,16,18,23.20
2013,07,25,16,19,23.10
2013,07,25,16,20,23.10
2013,07,25,16,21,23.20
2013,07,25,16,22,23.20
2013,07,25,16,23,23.20
2013,07,25,16,24,23.20
2013,07,25,16,25,23.30
2013,07,25,16,26,23.30
2013,07,25,16,27,23.30
2013,07,25,16,28,23.40
2013,07,25,16,29,23.60
2013,07,25,16,30,23.80
2013,07,25,16,31,23.90
2013,07,25,16,32,24.10
2013,07,25,16,33,24.10
2013,07,25,16,34,24.10
2013,07,25,16,35,23.90
2013,07,25,16,36,23.80
2013,07,25,16,37,23.70
2013,07,25,16,38,23.70
2013,07,25,16,39,23.60
2013,07,25,16,40,23.60
2013,07,25,16,41,23.60
2013,07,25,16,42,23.60
2013,07,25,16,43,23.50
2013,07,25,16,44,23.40
2013,07,25,16,45,23.30
2013,07,25,16,46,23.20
2013,07,25,16,47,23.20
2013,07,25,16,48,23.10
2013,07,25,16,49,23.10
2013,07,25,16,50,23.00
2013,07,25,16,51,22.90
2013,07,25,16,52,22.90
2013,07,25,16,53,22.90
2013,07,25,16,54,22.90
2013,07,25,16,55,22.90
2013,07,25,16,56,23.00
2013,07,25,16,57,23.10
2013,07,25,16,58,23.20
2013,07,25,16,59,23.30
2013,07,25,17,00,23.40
2013,07,25,17,01,23.50
2013,07,25,17,02,23.60
2013,07,25,17,03,23.70
2013,07,25,17,04,23.80
2013,07,25,17,05,24.00
2013,07,25,17,06,24.10
2013,07,25,17,07,24.10
2013,07,25,17,08,24.10
2013,07,25,17,09,24.10
2013,07,25,17,10,24.10
2013,07,25,17,11,24.10
2013,07,25,17,12,24.20
2013,07,25,17,13,24.10
2013,07,25,17,14,24.10
2013,07,25,17,15,24.10
2013,07,25,17,16,24.10
2013,07,25,17,17,24.10
2013,07,25,17,18,24.10
2013,07,25,17,19,24.10
2013,07,25,17,20,24.10
2013,07,25,17,21,24.10
2013,07,25,17,22,24.10
2013,07,25,17,23,24.10
2013,07,25,17,24,24.10
2013,07,25,17,25,24.10
2013,07,25,17,26,24.20
2013,07,25,17,27,24.20
2013,07,25,17,28,24.20
2013,07,25,17,29,24.20
2013,07,25,17,30,24.20
2013,07,25,17,31,24.30
2013,07,25,17,32,24.40
2013,07,25,17,33,24.40
2013,07,25,17,34,24.40
2013,07,25,17,35,24.40
2013,07,25,17,36,24.40
2013,07,25,17,37,24.40
2013,07,25,17,38,24.30
2013,07,25,17,39,24.30
2013,07,25,17,40,24.30
2013,07,25,17,41,24.30
2013,07,25,17,42,24.30
2013,07,25,17,43,24.30
2013,07,25,17,44,24.20
2013,07,25,17,45,24.30
2013,07,25,17,46,24.30
2013,07,25,17,47,24.30
2013,07,25,17,48,24.30
2013,07,25,17,49,24.30
2013,07,25,17,50,24.30
2013,07,25,17,51,24.20
2013,07,25,17,52,24.30
2013,07,25,17,53,24.30
2013,07,25,17,54,24.40
2013,07,25,17,55,24.50
2013,07,25,17,56,24.50
2013,07,25,17,57,24.50
2013,07,25,17,58,24.40
2013,07,25,17,59,24.40
2013,07,25,18,00,24.30
2013,07,25,18,01,24.30
2013,07,25,18,02,24.30
2013,07,25,18,03,24.30
2013,07,25,18,04,24.30
2013,07,25,18,05,24.20
2013,07,25,18,06,24.20
2013,07,25,18,07,24.20
2013,07,25,18,08,24.10
2013,07,25,18,09,24.10
2013,07,25,18,10,24.00
2013,07,25,18,11,23.80
2013,07,25,18,12,23.70
2013,07,25,18,13,23.60
2013,07,25,18,14,23.50
2013,07,25,18,15,23.30
2013,07,25,18,16,23.20
2013,07,25,18,17,23.00
2013,07,25,18,18,22.90
2013,07,25,18,19,22.80
2013,07,25,18,20,22.60
2013,07,25,18,21,22.50
2013,07,25,18,22,22.40
2013,07,25,18,23,22.30
2013,07,25,18,24,22.30
2013,07,25,18,25,22.30
2013,07,25,18,26,22.30
2013,07,25,18,27,22.30
2013,07,25,18,28,22.40
2013,07,25,18,29,22.40
2013,07,25,18,30,22.40
2013,07,25,18,31,22.40
2013,07,25,18,32,22.40
2013,07,25,18,33,22.50
2013,07,25,18,34,22.50
2013,07,25,18,35,22.60
2013,07,25,18,36,22.60
2013,07,25,18,37,22.60
2013,07,25,18,38,22.60
2013,07,25,18,39,22.60
2013,07,25,18,40,22.70
2013,07,25,18,41,22.80
2013,07,25,18,42,22.80
2013,07,25,18,43,22.90
2013,07,25,18,44,22.90
2013,07,25,18,45,22.90
2013,07,25,18,46,22.90
2013,07,25,18,47,22.90
2013,07,25,18,48,22.90
2013,07,25,18,49,22.90
2013,07,25,18,50,22.80
2013,07,25,18,51,22.80
2013,07,25,18,52,22.70
2013,07,25,18,53,22.60
2013,07,25,18,54,22.60
2013,07,25,18,55,22.60
2013,07,25,18,56,22.50
2013,07,25,18,57,22.50
2013,07,25,18,58,22.40
2013,07,25,18,59,22.40
2013,07,25,19,00,22.40
2013,07,25,19,01,22.40
2013,07,25,19,02,22.40
2013,07,25,19,03,22.30
2013,07,25,19,04,22.30
2013,07,25,19,05,22.20
2013,07,25,19,06,22.20
2013,07,25,19,07,22.10
2013,07,25,19,08,22.00
2013,07,25,19,09,21.90
2013,07,25,19,10,21.90
2013,07,25,19,11,21.90
2013,07,25,19,12,21.80
2013,07,25,19,13,21.70
2013,07,25,19,14,21.60
2013,07,25,19,15,21.60
2013,07,25,19,16,21.60
2013,07,25,19,17,21.60
2013,07,25,19,18,21.60
2013,07,25,19,19,21.70
2013,07,25,19,20,21.70
2013,07,25,19,21,21.80
2013,07,25,19,22,21.80
2013,07,25,19,23,21.80
2013,07,25,19,24,21.70
2013,07,25,19,25,21.60
2013,07,25,19,26,21.60
2013,07,25,19,27,21.50
2013,07,25,19,28,21.40
2013,07,25,19,29,21.30
2013,07,25,19,30,21.30
2013,07,25,19,31,21.20
2013,07,25,19,32,21.10
2013,07,25,19,33,21.10
2013,07,25,19,34,21.00
2013,07,25,19,35,20.90
2013,07,25,19,36,20.80
2013,07,25,19,37,20.70
2013,07,25,19,38,20.60
2013,07,25,19,39,20.50
2013,07,25,19,40,20.50
2013,07,25,19,41,20.40
2013,07,25,19,42,20.30
2013,07,25,19,43,20.20
2013,07,25,19,44,20.10
2013,07,25,19,45,20.10
2013,07,25,19,46,19.90
2013,07,25,19,47,19.90
2013,07,25,19,48,19.80
2013,07,25,19,49,19.80
2013,07,25,19,50,19.70
2013,07,25,19,51,19.70
2013,07,25,19,52,19.70
2013,07,25,19,53,19.70
2013,07,25,19,54,19.70
2013,07,25,19,55,19.80
2013,07,25,19,56,19.90
2013,07,25,19,57,19.90
2013,07,25,19,58,19.90
2013,07,25,19,59,19.90
2013,07,25,20,00,19.90
2013,07,25,20,01,19.90
2013,07,25,20,02,19.80
2013,07,25,20,03,19.80
2013,07,25,20,04,19.70
2013,07,25,20,05,19.70
2013,07,25,20,06,19.60
2013,07,25,20,07,19.60
2013,07,25,20,08,19.60
2013,07,25,20,09,19.60
2013,07,25,20,10,19.60
2013,07,25,20,11,19.60
2013,07,25,20,12,19.50
2013,07,25,20,13,19.50
2013,07,25,20,14,19.40
2013,07,25,20,15,19.40
2013,07,25,20,16,19.30
2013,07,25,20,17,19.30
2013,07,25,20,18,19.30
2013,07,25,20,19,19.30
2013,07,25,20,20,19.30
2013,07,25,20,21,19.30
2013,07,25,20,22,19.30
2013,07,25,20,23,19.30
2013,07,25,20,24,19.30
2013,07,25,20,25,19.30
2013,07,25,20,26,19.30
2013,07,25,20,27,19.30
